sat.trackr.live / text

‹ back to catalog

ONEWEB-0184

NORAD 48211 · 2021-031B

PAYLOAD ACTIVE UNKNOWN

§ Identity

Operator
Country
UK
Launch date
2021-04-25
Launch site
VOSTO
Launch vehicle
Mass (kg)
RCS (m²)

Purposes: comms

External: N2YO · Heavens-Above · Gunter

§ Orbital elements

Epoch: 2026-05-25T03:56:48.494688Z

Period
109.55 min
Inclination
87.8952°
Eccentricity
0.0001043
Mean motion
13.14501492 rev/d
Perigee alt
1,205.0 km
Apogee alt
1,206.6 km
Semi-major
7,583.9 km
B*
5.5204e-4
RAAN
294.2897°
Arg perigee
87.4711°
Mean anomaly
272.6538°
Rev number
24,526

§ Raw data

ONEWEB-01841 48211U 21031B   26145.16445017  .00000217  00000+0  55204-3 0  99972 48211  87.8952 294.2897 0001043  87.4711 272.6538 13.14501492245266

JSON: /api/v1/satellites/48211 · /tle

For live sub-satellite position, see the globe view (requires WebGL).

§ Visibility from observer

Set your observer location to see the next 7 days of passes ≥ 10°. The values pass through the URL so the page stays shareable.

No JS? Fill the form by hand. The geolocation button needs JavaScript.